GFSNW_250_spd_159.txt.gz
Wind_Speed
25 27 29 31 31 34 34 35 37 39 36 39 42 44 46 46 42 44 47 50 50 52 51 48 45 50 53 53 49 47 47 43 41 41 42 40 42 43 42 40 45 42 39 42
29 30 31 33 34 36 38 42 44 44 44 44 46 48 49 49 48 50 50 52 54 55 58 53 53 51 49 47 45 42 42 41 40 41 38 40 42 43 39 36 37 35 33 40
34 35 36 36 37 40 41 44 45 45 45 46 48 50 50 51 53 52 45 46 45 46 51 51 48 50 54 52 49 47 47 48 45 46 46 43 41 40 39 39 35 35 32 34
38 39 41 43 44 46 47 49 47 48 49 50 53 52 53 54 54 52 47 47 46 46 46 48 52 51 51 54 53 54 55 54 51 52 52 52 46 44 42 41 39 34 36 34
40 41 42 42 44 47 48 49 51 52 51 52 54 55 57 55 56 57 55 52 53 52 53 54 53 54 56 57 55 56 59 59 58 59 56 52 52 49 47 45 43 38 38 35
42 42 42 40 43 46 49 51 53 54 55 57 58 60 60 59 58 61 62 60 59 59 57 55 54 58 60 62 62 60 59 60 60 59 59 56 55 54 54 49 45 45 43 40
40 40 40 43 44 47 51 53 54 57 60 60 60 58 59 60 60 64 65 64 65 65 63 62 62 63 65 68 68 69 68 65 62 58 59 56 52 55 57 53 48 47 47 44
43 43 47 49 51 54 56 57 56 59 63 63 63 64 61 63 65 67 69 70 70 71 73 71 69 69 68 71 76 76 76 75 69 64 60 56 57 58 59 60 53 49 47 46
49 51 54 56 58 60 62 63 63 64 63 65 66 67 69 69 70 74 72 75 76 75 76 74 70 69 69 70 76 80 82 80 79 72 66 62 62 63 61 58 56 51 46 47
57 61 62 64 67 66 69 68 69 69 69 68 70 73 74 74 75 78 78 78 78 75 71 68 64 62 66 67 69 74 76 79 80 76 67 64 66 68 67 66 59 53 49 48
64 67 68 71 73 73 74 71 73 72 73 73 72 74 75 76 78 78 80 74 69 64 61 61 61 59 60 60 63 65 67 67 66 63 60 57 65 73 72 66 60 53 51 49
68 71 73 78 79 79 77 74 76 74 77 74 74 75 76 76 75 70 67 63 57 53 54 52 53 51 51 49 53 54 56 54 55 54 51 52 58 66 68 64 57 53 51 52
73 76 79 80 83 84 80 79 78 75 73 74 73 73 72 66 62 62 59 53 50 47 47 44 42 42 41 42 44 45 46 43 43 44 44 45 54 63 66 63 52 51 52 53
80 81 84 87 87 86 83 78 75 74 74 74 70 68 58 58 56 53 50 44 44 40 40 37 35 35 35 37 39 42 43 42 44 44 44 40 51 60 62 58 49 47 51 53
85 87 89 90 88 84 82 76 73 73 71 68 62 57 55 53 50 49 48 41 38 36 35 35 31 31 31 33 34 39 36 41 39 42 40 43 52 58 60 54 45 45 48 44
90 91 90 87 87 81 75 71 68 66 64 58 54 55 52 50 45 43 41 37 36 34 33 33 30 29 34 35 35 27 29 32 33 38 41 44 51 58 58 51 48 47 47 37
89 86 84 78 72 66 61 60 60 57 54 57 53 48 48 39 32 28 29 30 30 30 30 27 27 28 32 29 25 28 29 27 31 35 38 45 52 54 53 50 49 50 49 45
80 74 67 64 57 54 54 53 51 53 55 47 44 42 33 28 22 20 21 22 22 22 22 23 24 25 22 19 27 29 28 28 30 32 39 45 50 51 50 49 51 50 51 54
61 56 52 50 49 48 48 50 51 49 41 40 37 28 24 21 19 17 16 16 16 17 18 16 16 18 16 22 27 29 28 29 32 33 37 43 45 44 43 45 44 42 44 52
44 43 44 45 48 48 49 47 42 35 37 32 25 21 17 14 11 9 9 11 14 14 11 12 14 13 13 20 25 29 29 30 34 30 29 32 35 33 33 36 42 46 49 47
41 44 47 47 45 44 39 33 31 32 28 22 18 13 9 6 5 8 9 10 10 10 12 12 12 9 12 14 16 22 26 30 32 36 36 38 38 45 50 51 49 52 48 45
45 46 45 42 38 32 26 27 28 24 18 14 10 6 4 7 10 12 13 12 12 14 14 14 16 17 14 14 14 17 20 30 39 37 42 43 50 51 48 43 44 38 39 35
46 43 36 30 25 22 22 23 19 15 11 7 4 5 10 18 19 19 16 14 14 17 15 19 20 18 14 13 21 22 26 36 37 41 45 50 48 46 48 39 27 24 20 19
41 31 23 20 20 21 20 16 11 8 6 4 8 16 23 23 23 21 15 16 16 11 12 21 24 20 18 19 28 27 27 33 44 44 45 53 50 50 46 42 37 32 29 24
29 21 16 17 18 18 15 8 6 3 4 10 17 23 25 24 23 25 19 13 13 15 16 13 26 26 26 25 33 31 27 34 48 47 50 49 51 46 39 36 36 35 33 33
21 14 14 15 16 14 9 5 3 5 11 16 20 24 24 23 22 20 16 15 19 19 16 16 19 29 31 33 32 32 30 31 40 53 54 54 48 48 40 36 40 46 48 44
16 13 13 15 14 10 7 5 5 11 16 20 24 27 27 26 25 21 20 20 21 19 16 14 13 15 25 37 37 36 36 37 41 43 48 50 47 41 31 40 39 36 37 46

GFSNW_250_spd_162.txt.gz
Wind_Speed
20 21 22 23 25 27 27 29 31 33 35 37 39 40 41 41 39 41 41 45 45 46 50 51 52 54 53 56 57 53 50 49 54 51 50 48 48 45 46 46 42 41 41 49
25 27 29 29 30 31 33 33 35 37 38 40 42 44 46 47 46 43 44 47 48 50 51 53 55 53 54 55 56 57 55 52 52 52 50 45 43 45 43 41 40 39 37 46
29 31 33 35 34 34 34 36 38 39 41 43 46 48 48 48 50 49 50 49 48 51 52 52 50 50 49 49 51 51 49 52 51 53 54 49 46 44 43 43 41 39 37 42
34 36 40 41 41 40 39 38 37 38 38 42 44 46 47 50 53 54 53 53 54 55 53 53 52 52 53 51 53 53 52 49 49 52 56 55 53 50 45 43 42 41 38 40
38 40 42 42 43 42 38 34 34 34 38 40 41 45 48 52 55 56 56 59 55 55 55 54 56 56 57 58 58 57 57 55 52 50 57 59 58 54 48 46 44 44 41 36
44 45 46 43 40 40 38 38 39 42 44 45 47 49 50 53 58 61 61 60 58 57 56 57 59 60 61 60 61 61 61 60 58 54 57 59 56 58 58 55 49 44 42 41
49 50 48 47 45 45 46 47 48 49 52 53 54 55 57 58 60 64 64 63 63 62 61 62 62 62 64 66 67 67 67 67 63 59 60 56 55 58 61 58 52 46 45 45
54 55 54 51 50 52 53 54 57 58 60 62 63 64 64 64 65 66 69 68 67 68 70 69 69 69 70 70 72 73 74 73 71 68 63 60 59 59 61 60 59 54 47 46
59 59 59 55 53 55 58 59 62 63 65 68 70 69 70 70 70 69 70 72 72 74 75 75 75 75 77 75 74 77 80 80 78 73 68 64 65 67 65 61 59 57 52 51
63 63 61 58 57 58 60 63 64 67 71 71 73 76 75 75 74 74 74 76 77 74 75 77 80 79 79 77 76 76 78 77 74 71 68 66 69 71 68 67 58 59 57 51
66 62 60 60 61 60 65 69 72 74 77 77 80 80 81 78 76 77 80 77 75 75 77 78 77 73 69 66 68 68 68 67 64 62 61 63 71 74 73 71 71 66 63 57
66 66 66 67 69 70 72 77 77 81 83 84 84 84 81 80 78 79 79 76 75 72 69 64 62 63 62 58 56 56 56 59 61 60 61 62 65 66 68 74 76 72 68 66
76 76 76 76 78 80 80 82 84 86 88 88 84 83 82 77 76 76 76 71 67 61 57 59 56 55 54 50 49 49 51 54 54 53 55 57 58 59 61 65 72 76 72 67
83 83 82 83 83 84 85 86 87 87 87 85 81 77 72 72 69 67 63 57 56 57 54 52 49 45 40 41 42 40 42 44 43 42 48 46 48 49 52 59 66 70 64 60
90 90 90 88 86 87 87 85 84 82 80 76 69 64 61 61 57 54 56 54 51 51 49 48 46 40 35 38 37 40 29 34 33 36 36 38 45 45 47 50 55 55 51 55
92 90 87 84 83 83 81 79 75 70 64 59 55 52 50 51 55 51 49 47 44 42 41 41 40 34 34 36 31 22 27 32 33 35 35 39 40 42 44 43 45 46 47 55
79 77 76 76 74 72 70 64 59 53 50 47 48 49 51 48 44 46 44 34 28 27 29 31 32 30 30 29 26 31 32 29 29 30 33 37 37 39 41 42 40 44 51 57
66 65 65 64 59 54 50 46 45 46 47 48 49 47 42 40 40 35 29 24 19 18 20 22 22 23 23 25 27 25 27 28 28 28 32 34 36 39 40 37 41 49 55 55
49 46 43 40 39 39 42 45 47 48 47 45 39 36 37 35 29 22 18 15 14 13 13 15 15 15 17 16 16 18 22 24 23 22 23 25 29 32 34 38 46 52 55 51
29 30 31 33 38 42 46 47 46 42 38 31 31 32 27 20 14 10 7 7 8 8 8 8 8 8 8 11 15 18 20 20 17 20 21 23 25 29 35 41 45 50 53 52
27 29 33 37 42 45 43 39 34 28 26 27 26 19 12 7 4 3 4 7 9 8 7 6 6 4 4 5 9 14 18 17 17 22 22 23 25 32 36 39 43 46 50 53
31 34 38 43 44 39 31 26 23 22 23 19 12 6 3 5 8 9 9 9 8 6 5 4 5 2 3 7 4 9 15 19 21 22 22 21 24 30 35 40 45 48 49 47
34 37 42 42 36 26 21 20 20 19 14 8 3 8 10 13 13 12 11 10 9 8 5 5 5 4 5 5 9 12 15 18 21 22 22 25 30 32 33 33 32 34 38 44
37 41 42 35 25 19 18 18 17 12 5 5 13 15 17 18 16 13 11 13 13 10 6 8 7 3 7 11 11 13 17 20 25 23 22 28 27 31 37 36 37 37 39 42
39 41 37 25 18 16 16 15 10 6 5 17 20 21 21 20 15 14 16 14 12 8 8 9 13 8 11 17 14 17 22 23 22 20 22 28 40 46 44 39 40 40 43 41
42 37 26 18 15 14 13 11 7 5 13 24 24 22 20 17 11 16 20 21 16 10 1 4 12 12 13 20 21 22 22 17 22 28 29 43 41 39 43 37 35 35 32 32
36 28 19 15 13 12 11 9 6 7 20 29 27 25 23 17 19 22 23 20 15 11 13 11 9 15 15 23 28 23 20 19 25 29 29 42 39 40 38 33 28 24 24 22

GFSNW_250_spd_165.txt.gz
Wind_Speed
13 15 16 18 20 23 23 25 28 29 28 30 31 31 32 34 35 39 42 44 45 46 48 49 48 47 48 51 53 53 51 52 56 55 56 54 52 53 55 53 51 48 46 52
19 21 22 23 24 25 29 32 33 35 35 36 37 37 35 35 35 38 42 43 46 48 50 51 52 53 53 52 53 52 50 49 53 56 56 55 54 54 51 50 49 47 46 49
24 24 26 27 29 31 33 34 36 37 39 40 39 36 33 33 33 33 36 37 40 44 49 51 52 53 54 55 54 53 53 50 49 50 50 45 43 50 49 45 44 47 43 47
30 31 31 32 34 35 37 38 38 39 38 37 35 33 34 36 37 36 37 37 41 44 48 51 54 55 56 57 56 55 52 50 49 48 53 48 43 41 46 44 44 43 43 39
37 38 38 38 40 41 40 40 38 39 39 37 36 38 40 42 45 43 44 47 45 46 49 52 57 59 59 58 58 57 55 53 51 50 51 51 47 44 43 47 49 45 45 41
42 44 46 46 45 46 47 45 44 44 45 46 46 48 48 51 53 54 51 54 56 55 56 56 58 62 62 60 59 59 59 59 57 53 54 52 49 52 51 48 51 54 50 47
48 48 48 49 51 52 53 53 52 50 50 51 52 54 55 57 58 61 61 60 60 61 63 64 65 63 64 64 64 64 62 63 61 58 56 53 52 53 56 54 53 53 53 52
49 50 52 55 58 60 60 59 60 57 54 53 53 56 59 61 61 64 67 66 67 68 69 68 68 69 68 66 68 68 69 69 69 67 64 59 56 60 60 61 57 55 52 54
58 61 62 64 65 66 65 63 61 57 56 56 57 57 59 62 65 68 71 72 73 73 75 75 71 71 72 70 70 73 75 76 75 72 70 67 64 68 64 63 60 59 58 54
66 66 67 65 63 63 63 61 60 60 60 60 63 66 67 70 73 74 77 79 79 79 79 76 74 73 76 75 74 72 74 77 76 77 76 71 71 69 72 67 63 65 63 59
68 71 72 73 72 71 72 71 70 70 70 68 73 75 76 77 78 81 83 84 83 82 79 78 76 74 75 75 74 74 76 78 78 75 71 66 70 72 72 65 67 68 67 65
74 75 77 79 79 79 78 78 77 77 77 74 76 80 81 83 83 84 85 84 83 82 78 73 72 73 72 74 74 71 69 67 64 65 65 63 64 65 67 63 64 65 70 70
84 85 90 89 88 87 84 81 80 80 82 81 81 81 81 82 83 83 82 78 76 72 69 65 63 64 63 62 61 56 55 57 59 60 59 58 54 55 58 59 59 63 70 72
93 97 97 95 91 87 83 84 81 79 78 79 77 78 78 78 78 74 69 65 61 59 57 55 54 53 51 52 52 53 53 52 51 49 52 49 48 49 53 56 58 62 67 75
102 100 94 84 80 76 74 71 68 67 69 68 69 71 70 67 62 57 54 51 52 54 56 52 50 48 44 44 44 50 44 39 37 45 44 37 43 43 47 52 55 57 63 71
95 87 80 75 71 67 64 61 59 59 59 60 57 55 53 50 48 48 49 50 50 47 47 44 38 34 35 41 43 34 33 38 42 41 32 33 35 36 37 40 45 54 61 64
74 69 63 59 54 51 49 49 48 46 44 42 43 43 46 48 48 48 45 40 39 38 34 28 24 21 23 27 28 34 36 33 32 31 29 30 24 22 29 39 44 48 54 57
57 53 46 39 35 34 32 32 32 34 37 41 44 46 45 44 41 37 36 33 27 22 20 16 14 15 17 21 24 27 29 30 30 30 27 23 24 28 29 32 37 42 45 46
45 35 28 25 25 25 27 30 34 39 43 44 42 40 35 31 30 28 23 19 15 13 12 10 8 10 13 16 18 19 21 21 24 24 22 21 23 29 34 35 35 35 36 41
31 27 23 24 27 29 33 37 41 43 39 34 29 26 26 24 18 13 10 9 8 8 5 3 2 3 4 6 8 10 11 13 15 16 18 20 23 30 34 34 35 36 36 41
25 22 24 27 30 34 39 40 36 29 23 21 21 20 16 10 6 3 1 2 4 4 5 4 4 2 2 1 3 6 8 10 11 12 12 14 18 24 30 33 35 36 40 45
20 22 25 30 34 39 39 32 22 19 18 18 15 10 5 3 4 6 9 9 9 7 6 7 6 8 8 6 3 5 11 12 11 13 14 15 17 21 26 30 34 40 44 45
22 23 28 33 38 39 34 21 17 17 15 12 7 5 9 10 11 10 10 10 10 8 11 10 10 8 7 7 8 5 7 12 13 14 13 17 18 21 25 31 37 41 44 45
24 28 32 36 39 35 22 15 15 14 9 7 9 12 13 12 14 12 11 11 12 10 12 12 11 11 11 11 12 10 10 11 15 16 18 21 24 26 26 27 31 36 41 44
28 32 36 39 35 27 16 14 13 9 7 10 15 15 15 13 14 15 17 14 11 8 10 14 13 13 14 15 13 14 16 16 15 14 14 21 27 26 25 27 30 33 37 41
32 35 38 34 29 18 12 11 9 7 10 14 18 16 12 13 16 17 12 12 17 19 14 16 14 13 12 10 10 11 11 12 12 17 22 22 24 22 25 26 25 25 29 36
36 38 33 29 21 14 10 10 7 7 15 21 19 13 10 13 21 18 12 19 22 22 24 15 13 9 11 14 15 13 8 9 11 15 19 24 28 31 31 29 29 29 29 33

GFSNW_250_spd_168.txt.gz
Wind_Speed
11 12 13 14 16 18 18 20 22 26 28 31 33 33 34 35 36 36 37 38 40 41 42 43 44 45 46 48 49 48 48 47 48 48 50 52 50 51 51 51 49 46 47 55
15 17 18 18 19 19 20 22 25 26 28 32 36 37 38 39 41 42 42 40 40 40 40 40 40 43 45 47 49 50 51 51 52 52 51 48 46 50 51 52 51 47 49 54
22 23 25 26 26 27 27 28 29 30 31 32 34 38 39 40 42 42 41 38 37 36 36 36 37 39 40 43 45 49 50 52 51 53 55 49 47 46 45 43 42 45 46 51
28 30 31 33 35 35 36 36 37 37 38 38 38 36 37 38 40 40 40 39 40 41 40 41 41 42 43 44 46 47 49 51 52 51 53 52 49 47 44 43 42 41 42 45
33 35 36 37 39 40 42 42 43 43 44 44 44 43 44 44 44 45 46 47 46 46 47 49 49 49 49 51 50 51 52 53 54 50 53 53 51 50 49 45 45 42 43 44
39 41 42 44 44 46 46 45 46 47 50 52 52 53 51 52 52 54 56 56 56 57 54 57 57 56 56 56 58 58 58 60 57 54 53 52 51 54 54 49 48 46 44 47
45 47 48 50 50 48 49 50 53 55 57 58 60 61 60 59 59 57 58 60 62 61 63 63 60 61 61 61 62 64 63 64 65 60 58 50 52 55 54 56 51 49 47 46
51 50 52 54 57 57 58 59 59 60 60 59 59 59 60 61 61 61 59 59 61 62 63 64 65 65 66 67 67 69 68 68 68 66 62 58 56 57 55 58 54 53 49 49
56 59 62 62 63 62 61 62 62 62 63 64 65 64 64 63 62 63 64 63 65 68 69 70 70 72 74 72 74 74 76 71 70 68 66 61 64 62 59 59 57 63 57 53
67 66 64 64 65 66 66 66 68 70 72 71 74 72 72 72 73 73 72 73 73 75 75 77 79 79 81 79 81 79 79 77 71 71 68 66 69 65 64 66 65 62 62 61
67 67 67 68 70 73 74 79 80 79 80 84 83 81 79 77 76 78 78 78 78 79 82 82 84 83 85 84 86 84 82 79 74 72 70 68 69 68 66 66 69 67 66 67
71 72 74 79 81 82 84 84 88 93 92 88 85 84 80 78 74 73 76 79 81 84 84 84 85 83 86 85 84 81 77 76 72 71 70 68 70 70 69 70 70 71 71 71
80 83 86 88 90 91 91 96 94 91 86 77 74 72 71 72 74 75 77 76 78 79 80 80 81 81 79 76 71 68 63 65 62 66 66 66 61 62 60 63 63 66 68 71
90 92 94 95 96 97 94 90 84 78 74 68 65 66 66 65 65 66 68 69 69 69 70 69 65 61 58 56 55 56 58 52 53 50 54 53 50 48 50 54 57 61 62 65
95 96 98 96 91 87 81 75 69 63 59 55 53 53 53 54 56 57 58 58 57 53 51 50 50 53 55 57 54 54 50 48 46 49 51 49 49 46 46 47 51 55 57 60
94 90 87 82 77 69 64 61 56 51 47 45 44 43 43 45 44 43 42 43 44 47 49 49 50 49 48 47 43 38 40 42 44 48 46 39 38 34 38 41 43 49 53 57
78 74 70 65 58 54 49 40 35 32 29 28 29 31 34 36 38 41 41 42 42 42 40 39 41 38 35 29 26 29 30 33 34 35 34 32 31 32 36 41 41 44 51 53
62 56 51 46 44 37 30 28 27 27 29 32 35 38 40 40 40 38 36 33 31 31 32 32 26 23 19 17 16 19 19 23 26 28 28 26 27 27 31 35 35 41 46 49
44 39 37 34 29 26 27 28 29 32 36 39 40 38 35 31 27 25 25 23 21 19 18 15 12 11 11 11 12 14 16 19 22 24 23 24 26 26 28 30 31 37 38 41
31 28 27 25 23 25 26 29 34 38 39 35 29 24 21 19 18 13 8 7 6 4 3 3 2 1 2 4 7 10 11 13 15 16 20 23 25 24 25 28 27 29 35 37
24 23 19 18 22 24 28 34 38 36 28 22 19 16 13 5 2 1 2 4 6 6 6 7 6 7 8 8 7 7 7 8 9 12 16 19 22 22 23 24 26 26 28 31
17 16 17 20 22 27 32 36 35 26 19 17 14 8 2 3 4 6 8 9 10 12 11 9 11 7 10 7 7 4 5 8 9 8 11 13 16 19 23 25 25 25 25 28
17 18 20 23 26 31 34 35 28 18 15 14 7 2 7 8 7 7 8 9 10 11 10 9 7 9 9 9 11 7 6 8 7 9 7 9 10 12 15 20 22 24 28 29
20 21 23 27 30 33 34 30 19 14 12 8 1 7 8 8 9 10 12 8 11 12 16 16 15 13 13 13 12 11 9 9 11 12 10 10 11 12 14 19 26 26 27 31
23 25 27 30 33 34 30 22 14 11 9 3 5 9 9 8 6 4 8 14 14 20 20 16 13 14 13 15 17 13 12 11 9 10 14 15 15 16 17 19 24 29 32 40
29 29 29 32 34 30 25 15 10 9 6 4 5 7 9 8 8 11 16 18 19 19 20 15 9 10 12 16 19 17 13 12 10 13 16 18 17 17 19 21 24 23 33 41
33 33 33 34 32 26 19 12 9 8 6 6 8 11 9 7 11 20 25 21 18 17 15 12 8 11 13 14 12 13 12 11 14 17 17 18 16 14 15 17 22 27 35 41

GFSNW_250_spd_171.txt.gz
Wind_Speed
9 10 11 12 14 14 16 16 18 19 21 23 25 27 30 34 36 37 38 39 39 39 39 40 44 45 43 44 43 44 45 45 46 45 46 46 45 44 45 45 47 47 48 51
13 15 16 18 19 21 21 22 23 24 24 25 27 27 29 31 34 39 41 42 43 44 45 45 46 47 40 46 40 40 41 43 43 45 46 46 47 47 50 49 49 48 49 54
18 20 23 24 26 27 28 31 32 34 35 35 34 33 33 35 35 35 39 42 44 47 48 47 46 46 40 43 42 36 39 38 40 41 45 41 40 44 49 50 50 50 48 49
23 25 27 29 31 32 34 36 38 39 41 42 42 42 42 40 39 40 41 41 44 46 47 49 48 48 46 42 45 44 43 41 44 42 43 46 41 43 45 48 50 49 48 48
30 31 33 35 37 38 39 41 42 44 46 47 47 45 46 47 48 48 50 49 49 50 54 53 52 53 55 50 51 49 50 49 50 48 49 50 48 47 48 46 46 49 50 49
38 40 41 42 43 44 45 46 45 46 47 49 51 50 52 53 55 55 57 56 58 57 56 57 62 62 61 58 58 58 60 59 57 52 56 54 47 56 52 51 49 47 49 50
45 48 50 50 50 50 50 50 52 56 57 57 58 58 58 57 57 58 57 59 58 59 61 63 64 65 66 68 68 68 68 67 64 61 62 54 54 58 57 55 52 50 50 53
50 52 53 54 54 55 57 60 63 62 59 58 59 60 61 61 60 62 62 62 63 64 64 62 63 65 65 65 67 68 69 68 68 68 67 60 60 63 61 59 56 59 55 52
56 57 58 60 63 64 65 63 60 62 63 62 64 65 70 70 72 72 72 68 72 73 72 71 68 69 71 69 70 72 73 75 75 74 74 68 69 71 68 60 58 62 64 55
62 64 67 67 66 65 66 66 66 67 69 70 74 79 79 80 79 79 77 82 83 79 77 76 78 78 80 79 79 80 80 79 81 80 80 73 77 77 75 66 62 66 63 61
68 66 67 69 71 72 73 75 76 79 82 83 86 86 88 88 89 89 85 87 82 81 79 81 82 80 84 83 84 86 86 87 85 87 87 80 84 82 79 72 65 66 67 67
68 70 74 76 78 81 84 87 88 89 91 91 90 89 90 87 85 83 81 80 78 78 79 79 79 81 80 81 84 87 88 91 91 91 91 89 82 83 80 72 68 69 69 67
77 79 81 84 87 87 89 92 93 94 91 87 83 82 79 75 72 69 69 68 68 68 71 71 73 76 79 80 83 85 87 87 87 88 83 83 77 77 72 72 67 68 70 72
82 84 87 90 92 94 92 88 84 80 76 72 69 67 65 63 61 57 55 54 57 60 64 65 67 68 68 70 71 73 76 74 74 68 64 67 60 59 61 64 64 66 75 77
85 92 95 93 88 82 77 72 68 65 61 58 56 56 53 49 46 45 45 45 45 47 50 54 56 56 56 58 60 60 58 56 59 59 59 58 54 50 52 55 60 70 68 71
95 91 84 76 69 63 60 57 54 50 48 47 41 37 34 31 30 30 31 33 35 37 39 40 42 43 45 50 52 52 53 52 50 50 48 45 47 50 45 44 47 50 54 58
83 73 66 62 59 53 45 41 39 37 35 33 32 32 32 33 34 35 35 36 38 40 40 41 42 42 41 42 42 39 41 36 34 32 27 30 32 34 38 43 49 53 56 58
65 59 57 54 44 36 33 30 29 29 30 31 33 37 38 39 38 37 35 35 34 32 31 29 29 28 28 26 25 24 23 21 20 20 21 25 29 31 34 39 43 45 45 45
55 52 45 36 31 28 26 24 26 28 31 35 38 38 35 29 24 21 20 20 20 19 17 16 14 12 11 12 14 17 18 18 17 18 19 23 26 27 29 33 36 33 34 38
47 40 32 28 27 23 21 23 26 31 36 38 34 26 21 18 16 13 9 7 5 4 4 4 4 2 2 3 7 12 14 15 17 18 19 21 22 24 25 26 26 27 27 31
38 33 27 22 20 19 22 25 30 35 36 31 22 17 14 10 3 1 3 5 6 9 10 9 5 5 1 3 8 10 9 10 11 11 11 13 16 18 19 18 19 20 21 22
33 28 24 22 21 22 24 29 33 35 32 21 15 10 2 3 6 7 9 9 10 12 8 7 5 7 11 13 11 11 4 2 3 3 4 6 9 10 12 13 15 16 14 14
32 30 26 25 24 24 27 31 35 33 22 14 9 2 4 7 8 11 11 12 13 13 12 10 10 11 10 11 11 10 4 2 1 2 2 2 2 4 9 13 12 15 14 13
35 33 30 27 27 27 28 31 32 27 16 8 2 4 6 7 9 10 15 19 18 18 16 13 12 11 10 9 9 6 4 3 4 5 5 7 8 9 9 13 17 17 18 16
37 35 34 31 29 28 29 31 29 22 10 3 6 6 6 6 6 9 17 19 19 16 14 17 19 12 5 13 13 12 9 7 5 6 10 12 12 11 9 11 13 15 16 16
36 35 34 33 32 31 30 29 24 15 9 6 11 9 6 5 7 16 20 19 15 15 12 12 6 14 15 13 11 13 13 8 9 13 14 8 12 15 13 12 10 16 29 42
36 34 32 32 30 29 27 23 19 10 6 14 17 12 8 9 19 21 19 15 10 7 9 9 9 12 11 10 9 10 13 14 13 15 17 14 20 20 18 15 14 17 48 54